Time,TemperatureF,DewpointF,PressureIn,WindDirection,WindDirectionDegrees,WindSpeedMPH,WindSpeedGustMPH,Humidity,HourlyPrecipIn,Conditions,Clouds,dailyrainin,SoftwareType,DateUTC
2013-11-11 00:01:00,36.4,31.7,30.11,NNE,23,3.0,10.0,83,0.00,,,0.00,WUHU216DAVISVP2,2013-11-11 05:01:00,
2013-11-11 00:02:00,36.5,31.8,30.10,NE,56,4.0,10.0,83,0.00,,,0.00,WUHU216DAVISVP2,2013-11-11 05:02:00,
2013-11-11 00:07:00,36.5,31.8,30.10,ENE,68,6.0,10.0,83,0.00,,,0.00,WUHU216DAVISVP2,2013-11-11 05:07:00,
2013-11-11 00:12:00,36.5,31.8,30.10,NE,40,3.0,9.0,83,0.00,,,0.00,WUHU216DAVISVP2,2013-11-11 05:12:00,
2013-11-11 00:17:00,36.4,31.7,30.09,NNE,16,4.0,9.0,83,0.00,,,0.00,WUHU216DAVISVP2,2013-11-11 05:17:00,
2013-11-11 00:22:00,36.4,31.7,30.09,NNE,32,4.0,8.0,83,0.00,,,0.00,WUHU216DAVISVP2,2013-11-11 05:22:00,
2013-11-11 00:27:00,36.4,31.7,30.09,NE,54,5.0,8.0,83,0.00,,,0.00,WUHU216DAVISVP2,2013-11-11 05:27:00,
2013-11-11 00:32:00,36.4,31.7,30.09,NE,41,3.0,8.0,83,0.00,,,0.00,WUHU216DAVISVP2,2013-11-11 05:32:00,
2013-11-11 00:37:00,36.5,31.8,30.09,NNE,33,6.0,8.0,83,0.00,,,0.00,WUHU216DAVISVP2,2013-11-11 05:37:00,
2013-11-11 00:42:00,36.6,31.9,30.09,NE,53,8.0,8.0,83,0.00,,,0.00,WUHU216DAVISVP2,2013-11-11 05:42:00,
2013-11-11 00:47:00,36.7,32.0,30.09,NE,34,4.0,10.0,83,0.00,,,0.00,WUHU216DAVISVP2,2013-11-11 05:47:00,
2013-11-11 00:52:00,36.7,32.0,30.09,NE,42,4.0,10.0,83,0.00,,,0.00,WUHU216DAVISVP2,2013-11-11 05:52:00,
2013-11-11 00:57:00,36.8,32.1,30.08,NE,46,2.0,10.0,83,0.00,,,0.00,WUHU216DAVISVP2,2013-11-11 05:57:00,
2013-11-11 01:02:00,36.9,32.2,30.08,NW,326,3.0,10.0,83,0.00,,,0.00,WUHU216DAVISVP2,2013-11-11 06:02:00,
2013-11-11 01:07:00,36.9,32.2,30.08,NNE,16,4.0,11.0,83,0.00,,,0.00,WUHU216DAVISVP2,2013-11-11 06:07:00,
2013-11-11 01:12:00,36.9,32.2,30.08,NNE,33,6.0,11.0,83,0.00,,,0.00,WUHU216DAVISVP2,2013-11-11 06:12:00,
2013-11-11 01:17:00,36.9,32.2,30.07,NNW,336,2.0,10.0,83,0.00,,,0.00,WUHU216DAVISVP2,2013-11-11 06:17:00,
2013-11-11 01:22:00,37.0,32.3,30.08,NE,44,7.0,10.0,83,0.00,,,0.00,WUHU216DAVISVP2,2013-11-11 06:22:00,
2013-11-11 01:27:00,37.1,32.4,30.07,NNE,19,7.0,9.0,83,0.00,,,0.00,WUHU216DAVISVP2,2013-11-11 06:27:00,
2013-11-11 01:32:00,37.2,32.5,30.07,NNE,32,3.0,10.0,83,0.00,,,0.00,WUHU216DAVISVP2,2013-11-11 06:32:00,
2013-11-11 01:37:00,37.4,32.7,30.07,NNE,16,6.0,10.0,83,0.00,,,0.00,WUHU216DAVISVP2,2013-11-11 06:37:00,
2013-11-11 01:42:00,37.5,32.8,30.07,NNE,32,2.0,10.0,83,0.00,,,0.00,WUHU216DAVISVP2,2013-11-11 06:42:00,
2013-11-11 01:47:00,37.6,32.9,30.07,NNE,25,5.0,10.0,83,0.00,,,0.00,WUHU216DAVISVP2,2013-11-11 06:47:00,
2013-11-11 01:52:00,37.7,32.7,30.07,NNE,26,3.0,10.0,82,0.00,,,0.00,WUHU216DAVISVP2,2013-11-11 06:52:00,
2013-11-11 01:57:00,37.9,32.9,30.06,NE,50,4.0,9.0,82,0.00,,,0.00,WUHU216DAVISVP2,2013-11-11 06:57:00,
2013-11-11 02:02:00,38.0,33.0,30.06,NNE,32,8.0,9.0,82,0.00,,,0.00,WUHU216DAVISVP2,2013-11-11 07:02:00,
2013-11-11 02:07:00,38.1,33.1,30.06,NNE,31,5.0,8.0,82,0.00,,,0.00,WUHU216DAVISVP2,2013-11-11 07:07:00,
2013-11-11 02:12:00,38.1,33.1,30.05,NE,51,3.0,8.0,82,0.00,,,0.00,WUHU216DAVISVP2,2013-11-11 07:12:00,
2013-11-11 02:17:00,38.1,33.1,30.05,NE,36,3.0,8.0,82,0.00,,,0.00,WUHU216DAVISVP2,2013-11-11 07:17:00,
2013-11-11 02:22:00,38.1,33.1,30.05,ENE,62,3.0,8.0,82,0.00,,,0.00,WUHU216DAVISVP2,2013-11-11 07:22:00,
2013-11-11 02:27:00,38.1,33.1,30.05,ENE,58,3.0,7.0,82,0.00,,,0.00,WUHU216DAVISVP2,2013-11-11 07:27:00,
2013-11-11 02:32:00,38.1,33.1,30.05,NE,40,4.0,7.0,82,0.00,,,0.00,WUHU216DAVISVP2,2013-11-11 07:32:00,
2013-11-11 02:37:00,38.2,33.2,30.05,NNE,30,3.0,8.0,82,0.00,,,0.00,WUHU216DAVISVP2,2013-11-11 07:37:00,
2013-11-11 02:42:00,38.2,33.2,30.04,NNE,26,1.0,8.0,82,0.00,,,0.00,WUHU216DAVISVP2,2013-11-11 07:42:00,
2013-11-11 02:47:00,38.2,33.5,30.04,NNE,30,1.0,7.0,83,0.00,,,0.00,WUHU216DAVISVP2,2013-11-11 07:47:00,
2013-11-11 02:52:00,38.2,33.5,30.03,NNE,32,3.0,7.0,83,0.00,,,0.00,WUHU216DAVISVP2,2013-11-11 07:52:00,
2013-11-11 02:57:00,38.2,33.5,30.02,NNE,18,5.0,7.0,83,0.00,,,0.00,WUHU216DAVISVP2,2013-11-11 07:57:00,
2013-11-11 03:02:00,38.3,33.6,30.02,ENE,57,3.0,7.0,83,0.00,,,0.00,WUHU216DAVISVP2,2013-11-11 08:02:00,
2013-11-11 03:07:00,38.4,33.7,30.02,ENE,65,3.0,6.0,83,0.00,,,0.00,WUHU216DAVISVP2,2013-11-11 08:07:00,
2013-11-11 03:12:00,38.4,33.7,30.02,North,11,4.0,9.0,83,0.00,,,0.00,WUHU216DAVISVP2,2013-11-11 08:12:00,
2013-11-11 03:17:00,38.6,33.9,30.02,NE,54,4.0,9.0,83,0.00,,,0.00,WUHU216DAVISVP2,2013-11-11 08:17:00,
2013-11-11 03:22:00,38.7,34.0,30.01,NE,52,1.0,8.0,83,0.00,,,0.00,WUHU216DAVISVP2,2013-11-11 08:22:00,
2013-11-11 03:27:00,38.8,34.1,30.01,NNE,31,4.0,9.0,83,0.00,,,0.00,WUHU216DAVISVP2,2013-11-11 08:27:00,
2013-11-11 03:32:00,38.9,34.2,30.00,NNE,20,3.0,9.0,83,0.00,,,0.00,WUHU216DAVISVP2,2013-11-11 08:32:00,
2013-11-11 03:37:00,39.0,34.3,30.00,NNE,16,4.0,9.0,83,0.00,,,0.00,WUHU216DAVISVP2,2013-11-11 08:37:00,
2013-11-11 03:42:00,39.1,34.4,30.00,NE,51,3.0,7.0,83,0.00,,,0.00,WUHU216DAVISVP2,2013-11-11 08:42:00,
2013-11-11 03:47:00,39.3,34.6,30.00,NE,50,6.0,8.0,83,0.00,,,0.00,WUHU216DAVISVP2,2013-11-11 08:47:00,
2013-11-11 03:52:00,39.5,34.5,30.00,East,82,2.0,8.0,82,0.00,,,0.00,WUHU216DAVISVP2,2013-11-11 08:52:00,
2013-11-11 03:57:00,39.6,34.6,30.00,ENE,65,3.0,8.0,82,0.00,,,0.00,WUHU216DAVISVP2,2013-11-11 08:57:00,
2013-11-11 04:02:00,39.7,34.7,30.00,NNE,26,8.0,11.0,82,0.00,,,0.00,WUHU216DAVISVP2,2013-11-11 09:02:00,
2013-11-11 04:07:00,39.9,34.9,30.00,ENE,59,4.0,11.0,82,0.00,,,0.00,WUHU216DAVISVP2,2013-11-11 09:07:00,
2013-11-11 04:12:00,40.0,34.9,30.00,NE,42,7.0,10.0,82,0.00,,,0.00,WUHU216DAVISVP2,2013-11-11 09:12:00,
2013-11-11 04:17:00,40.1,35.0,29.99,ENE,57,5.0,10.0,82,0.00,,,0.00,WUHU216DAVISVP2,2013-11-11 09:17:00,
2013-11-11 04:22:00,40.2,34.8,30.00,ENE,63,5.0,8.0,81,0.00,,,0.00,WUHU216DAVISVP2,2013-11-11 09:22:00,
2013-11-11 04:27:00,40.3,34.9,29.99,ENE,73,3.0,8.0,81,0.00,,,0.00,WUHU216DAVISVP2,2013-11-11 09:27:00,
2013-11-11 04:32:00,40.4,35.0,29.99,East,89,2.0,8.0,81,0.00,,,0.00,WUHU216DAVISVP2,2013-11-11 09:32:00,
2013-11-11 04:37:00,40.3,34.9,29.99,NE,42,2.0,7.0,81,0.00,,,0.00,WUHU216DAVISVP2,2013-11-11 09:37:00,
2013-11-11 04:42:00,40.4,35.0,29.98,East,98,4.0,7.0,81,0.00,,,0.00,WUHU216DAVISVP2,2013-11-11 09:42:00,
2013-11-11 04:47:00,40.5,35.1,29.98,East,86,6.0,7.0,81,0.00,,,0.00,WUHU216DAVISVP2,2013-11-11 09:47:00,
2013-11-11 04:52:00,40.6,35.2,29.98,ENE,63,2.0,8.0,81,0.00,,,0.00,WUHU216DAVISVP2,2013-11-11 09:52:00,
2013-11-11 04:57:00,40.5,35.1,29.98,ENE,68,5.0,8.0,81,0.00,,,0.00,WUHU216DAVISVP2,2013-11-11 09:57:00,
2013-11-11 05:02:00,40.6,35.2,29.98,ENE,63,2.0,8.0,81,0.00,,,0.00,WUHU216DAVISVP2,2013-11-11 10:02:00,
2013-11-11 05:07:00,40.8,35.4,29.98,East,101,2.0,8.0,81,0.00,,,0.00,WUHU216DAVISVP2,2013-11-11 10:07:00,
2013-11-11 05:12:00,41.0,35.3,29.98,NE,55,3.0,9.0,80,0.00,,,0.00,WUHU216DAVISVP2,2013-11-11 10:12:00,
2013-11-11 05:17:00,41.2,35.5,29.97,NE,41,3.0,10.0,80,0.00,,,0.00,WUHU216DAVISVP2,2013-11-11 10:17:00,
2013-11-11 05:22:00,41.4,35.4,29.97,ENE,72,3.0,10.0,79,0.00,,,0.00,WUHU216DAVISVP2,2013-11-11 10:22:00,
2013-11-11 05:27:00,41.7,35.7,29.97,ENE,60,6.0,12.0,79,0.00,,,0.00,WUHU216DAVISVP2,2013-11-11 10:27:00,
2013-11-11 05:32:00,41.9,35.5,29.97,ESE,103,5.0,12.0,78,0.00,,,0.00,WUHU216DAVISVP2,2013-11-11 10:32:00,
2013-11-11 05:37:00,42.1,35.4,29.97,ENE,65,5.0,11.0,77,0.00,,,0.00,WUHU216DAVISVP2,2013-11-11 10:37:00,
2013-11-11 05:42:00,42.2,35.6,29.96,ENE,73,6.0,11.0,77,0.00,,,0.00,WUHU216DAVISVP2,2013-11-11 10:42:00,
2013-11-11 05:47:00,42.4,35.4,29.96,ENE,75,6.0,12.0,76,0.00,,,0.00,WUHU216DAVISVP2,2013-11-11 10:47:00,
2013-11-11 05:52:00,42.6,35.6,29.96,East,81,7.0,12.0,76,0.00,,,0.00,WUHU216DAVISVP2,2013-11-11 10:52:00,
2013-11-11 05:57:00,42.7,35.7,29.96,ENE,58,7.0,14.0,76,0.00,,,0.00,WUHU216DAVISVP2,2013-11-11 10:57:00,
2013-11-11 06:02:00,42.8,35.8,29.96,East,96,8.0,14.0,76,0.00,,,0.00,WUHU216DAVISVP2,2013-11-11 11:02:00,
2013-11-11 06:07:00,42.9,35.9,29.95,East,79,6.0,13.0,76,0.00,,,0.00,WUHU216DAVISVP2,2013-11-11 11:07:00,
2013-11-11 06:12:00,42.9,35.9,29.95,East,101,9.0,12.0,76,0.00,,,0.00,WUHU216DAVISVP2,2013-11-11 11:12:00,
2013-11-11 06:17:00,43.0,36.0,29.95,East,86,5.0,13.0,76,0.00,,,0.00,WUHU216DAVISVP2,2013-11-11 11:17:00,
2013-11-11 06:22:00,43.1,35.8,29.95,ENE,78,5.0,13.0,75,0.00,,,0.00,WUHU216DAVISVP2,2013-11-11 11:22:00,
2013-11-11 06:27:00,43.1,36.1,29.96,ENE,75,5.0,12.0,76,0.00,,,0.00,WUHU216DAVISVP2,2013-11-11 11:27:00,
2013-11-11 06:32:00,43.1,36.1,29.96,East,82,10.0,12.0,76,0.00,,,0.00,WUHU216DAVISVP2,2013-11-11 11:32:00,
2013-11-11 06:37:00,43.2,36.2,29.96,East,87,5.0,12.0,76,0.00,,,0.00,WUHU216DAVISVP2,2013-11-11 11:37:00,
2013-11-11 06:42:00,43.2,36.1,29.96,ENE,77,8.0,12.0,76,0.00,,,0.00,WUHU216DAVISVP2,2013-11-11 11:42:00,
2013-11-11 06:47:00,43.1,36.4,29.96,ENE,65,7.0,17.0,77,0.00,,,0.00,WUHU216DAVISVP2,2013-11-11 11:47:00,
2013-11-11 06:52:00,42.9,36.5,29.95,ESE,110,5.0,17.0,78,0.00,,,0.00,WUHU216DAVISVP2,2013-11-11 11:52:00,
2013-11-11 06:57:00,42.8,36.7,29.96,ESE,106,3.0,15.0,79,0.00,,,0.00,WUHU216DAVISVP2,2013-11-11 11:57:00,
2013-11-11 07:02:00,42.7,36.6,29.95,ENE,67,6.0,15.0,79,0.00,,,0.00,WUHU216DAVISVP2,2013-11-11 12:02:00,
2013-11-11 07:07:00,42.5,36.8,29.95,East,85,7.0,12.0,80,0.00,,,0.00,WUHU216DAVISVP2,2013-11-11 12:07:00,
2013-11-11 07:12:00,42.3,36.9,29.96,East,85,5.0,12.0,81,0.00,,,0.00,WUHU216DAVISVP2,2013-11-11 12:12:00,
2013-11-11 07:17:00,42.0,37.2,29.96,SE,136,3.0,12.0,83,0.00,,,0.00,WUHU216DAVISVP2,2013-11-11 12:17:00,
2013-11-11 07:22:00,41.7,37.5,29.97,ESE,103,12.0,18.0,85,0.01,,,0.01,WUHU216DAVISVP2,2013-11-11 12:22:00,
2013-11-11 07:27:00,41.3,37.4,29.98,ENE,66,2.0,18.0,86,0.02,,,0.02,WUHU216DAVISVP2,2013-11-11 12:27:00,
2013-11-11 07:32:00,40.6,37.3,29.97,East,101,10.0,16.0,88,0.02,,,0.02,WUHU216DAVISVP2,2013-11-11 12:32:00,
2013-11-11 07:37:00,40.1,37.1,29.97,ESE,111,3.0,16.0,89,0.03,,,0.03,WUHU216DAVISVP2,2013-11-11 12:37:00,
2013-11-11 07:42:00,39.7,37.0,29.97,SE,138,4.0,14.0,90,0.03,,,0.03,WUHU216DAVISVP2,2013-11-11 12:42:00,
2013-11-11 07:47:00,39.5,37.0,29.98,East,92,5.0,14.0,91,0.04,,,0.04,WUHU216DAVISVP2,2013-11-11 12:47:00,
2013-11-11 07:52:00,39.1,36.6,29.98,East,82,4.0,13.0,91,0.05,,,0.05,WUHU216DAVISVP2,2013-11-11 12:52:00,
2013-11-11 07:57:00,38.9,36.5,29.98,ESE,109,9.0,14.0,91,0.05,,,0.05,WUHU216DAVISVP2,2013-11-11 12:57:00,
2013-11-11 08:02:00,38.7,36.5,29.98,East,93,9.0,14.0,92,0.05,,,0.05,WUHU216DAVISVP2,2013-11-11 13:02:00,
2013-11-11 08:07:00,38.6,36.4,29.98,ENE,70,4.0,13.0,92,0.05,,,0.05,WUHU216DAVISVP2,2013-11-11 13:07:00,
2013-11-11 08:12:00,38.5,36.6,29.96,ESE,110,4.0,11.0,93,0.05,,,0.05,WUHU216DAVISVP2,2013-11-11 13:12:00,
2013-11-11 08:17:00,38.3,36.4,29.96,ENE,73,8.0,10.0,93,0.06,,,0.06,WUHU216DAVISVP2,2013-11-11 13:17:00,
2013-11-11 08:22:00,38.3,36.4,29.97,ESE,103,4.0,10.0,93,0.05,,,0.06,WUHU216DAVISVP2,2013-11-11 13:22:00,
2013-11-11 08:27:00,38.2,36.6,29.97,East,93,6.0,12.0,94,0.04,,,0.06,WUHU216DAVISVP2,2013-11-11 13:27:00,
2013-11-11 08:32:00,38.1,36.5,29.97,East,96,2.0,12.0,94,0.04,,,0.06,WUHU216DAVISVP2,2013-11-11 13:32:00,
2013-11-11 08:37:00,38.0,36.4,29.97,East,85,5.0,11.0,94,0.03,,,0.06,WUHU216DAVISVP2,2013-11-11 13:37:00,
2013-11-11 08:42:00,38.0,36.4,29.97,East,97,7.0,10.0,94,0.03,,,0.06,WUHU216DAVISVP2,2013-11-11 13:42:00,
2013-11-11 08:47:00,38.0,36.7,29.98,ENE,70,6.0,11.0,95,0.02,,,0.06,WUHU216DAVISVP2,2013-11-11 13:47:00,
2013-11-11 08:52:00,38.0,36.7,29.98,ENE,70,5.0,14.0,95,0.02,,,0.07,WUHU216DAVISVP2,2013-11-11 13:52:00,
2013-11-11 08:57:00,37.9,36.3,29.98,East,99,7.0,14.0,94,0.02,,,0.07,WUHU216DAVISVP2,2013-11-11 13:57:00,
2013-11-11 09:02:00,37.7,36.4,29.99,SE,136,2.0,14.0,95,0.03,,,0.08,WUHU216DAVISVP2,2013-11-11 14:02:00,
2013-11-11 09:07:00,37.6,36.3,29.99,East,93,3.0,15.0,95,0.03,,,0.08,WUHU216DAVISVP2,2013-11-11 14:07:00,
2013-11-11 09:12:00,37.5,36.2,29.99,ESE,113,6.0,15.0,95,0.04,,,0.09,WUHU216DAVISVP2,2013-11-11 14:12:00,
2013-11-11 09:17:00,37.5,36.2,29.99,East,97,8.0,15.0,95,0.03,,,0.09,WUHU216DAVISVP2,2013-11-11 14:17:00,
2013-11-11 09:22:00,37.5,36.2,29.99,ESE,107,8.0,14.0,95,0.03,,,0.09,WUHU216DAVISVP2,2013-11-11 14:22:00,
2013-11-11 09:27:00,37.5,36.2,29.99,ESE,105,4.0,14.0,95,0.04,,,0.10,WUHU216DAVISVP2,2013-11-11 14:27:00,
2013-11-11 09:32:00,37.5,36.2,29.98,ESE,103,6.0,14.0,95,0.04,,,0.10,WUHU216DAVISVP2,2013-11-11 14:32:00,
2013-11-11 09:37:00,37.5,36.2,29.99,ENE,76,3.0,14.0,95,0.05,,,0.11,WUHU216DAVISVP2,2013-11-11 14:37:00,
2013-11-11 09:42:00,37.5,36.2,29.98,ENE,78,7.0,14.0,95,0.05,,,0.11,WUHU216DAVISVP2,2013-11-11 14:42:00,
2013-11-11 09:47:00,37.5,36.2,29.99,ESE,112,4.0,14.0,95,0.06,,,0.12,WUHU216DAVISVP2,2013-11-11 14:47:00,
2013-11-11 09:52:00,37.4,36.1,29.98,ESE,108,5.0,12.0,95,0.05,,,0.12,WUHU216DAVISVP2,2013-11-11 14:52:00,
2013-11-11 09:57:00,37.3,36.0,29.98,SE,143,5.0,12.0,95,0.06,,,0.13,WUHU216DAVISVP2,2013-11-11 14:57:00,
2013-11-11 10:02:00,37.3,36.0,29.98,ESE,120,7.0,12.0,95,0.05,,,0.13,WUHU216DAVISVP2,2013-11-11 15:02:00,
2013-11-11 10:07:00,37.2,35.9,29.98,SE,134,7.0,12.0,95,0.05,,,0.13,WUHU216DAVISVP2,2013-11-11 15:07:00,
2013-11-11 10:12:00,37.3,36.0,29.98,ESE,122,4.0,13.0,95,0.05,,,0.14,WUHU216DAVISVP2,2013-11-11 15:12:00,
2013-11-11 10:17:00,37.3,36.0,29.98,ENE,76,6.0,13.0,95,0.05,,,0.14,WUHU216DAVISVP2,2013-11-11 15:17:00,
2013-11-11 10:22:00,37.3,36.0,29.98,ENE,73,7.0,16.0,95,0.05,,,0.14,WUHU216DAVISVP2,2013-11-11 15:22:00,
2013-11-11 10:27:00,37.2,35.9,29.99,ENE,77,6.0,16.0,95,0.05,,,0.15,WUHU216DAVISVP2,2013-11-11 15:27:00,
2013-11-11 10:32:00,37.1,35.8,29.99,East,97,4.0,14.0,95,0.05,,,0.15,WUHU216DAVISVP2,2013-11-11 15:32:00,
2013-11-11 10:37:00,37.2,35.9,29.99,ESE,107,5.0,14.0,95,0.05,,,0.16,WUHU216DAVISVP2,2013-11-11 15:37:00,
2013-11-11 10:42:00,37.1,35.8,29.99,East,97,5.0,14.0,95,0.05,,,0.16,WUHU216DAVISVP2,2013-11-11 15:42:00,
2013-11-11 10:47:00,37.1,35.8,29.99,SE,142,1.0,13.0,95,0.05,,,0.17,WUHU216DAVISVP2,2013-11-11 15:47:00,
2013-11-11 10:52:00,36.9,35.6,29.99,SSE,148,6.0,14.0,95,0.05,,,0.17,WUHU216DAVISVP2,2013-11-11 15:52:00,
2013-11-11 10:57:00,36.7,35.4,29.99,ESE,120,8.0,14.0,95,0.05,,,0.18,WUHU216DAVISVP2,2013-11-11 15:57:00,
2013-11-11 11:02:00,36.4,34.8,30.00,ENE,61,5.0,17.0,94,0.06,,,0.19,WUHU216DAVISVP2,2013-11-11 16:02:00,
2013-11-11 11:07:00,36.2,34.9,29.99,ESE,120,9.0,17.0,95,0.06,,,0.19,WUHU216DAVISVP2,2013-11-11 16:07:00,
2013-11-11 11:12:00,36.1,34.8,29.99,SE,128,5.0,17.0,95,0.05,,,0.19,WUHU216DAVISVP2,2013-11-11 16:12:00,
2013-11-11 11:17:00,35.9,34.6,29.99,East,99,9.0,17.0,95,0.06,,,0.20,WUHU216DAVISVP2,2013-11-11 16:17:00,
2013-11-11 11:22:00,35.8,34.5,29.99,SE,126,2.0,12.0,95,0.06,,,0.20,WUHU216DAVISVP2,2013-11-11 16:22:00,
2013-11-11 11:27:00,35.6,34.3,29.99,SE,127,3.0,12.0,95,0.05,,,0.20,WUHU216DAVISVP2,2013-11-11 16:27:00,
2013-11-11 11:32:00,35.5,34.2,30.00,East,81,8.0,10.0,95,0.06,,,0.21,WUHU216DAVISVP2,2013-11-11 16:32:00,
2013-11-11 11:37:00,35.3,34.0,30.00,SE,127,6.0,10.0,95,0.05,,,0.21,WUHU216DAVISVP2,2013-11-11 16:37:00,
2013-11-11 11:42:00,35.3,34.0,30.00,East,91,2.0,10.0,95,0.05,,,0.21,WUHU216DAVISVP2,2013-11-11 16:42:00,
2013-11-11 11:47:00,35.3,34.2,30.00,SE,132,5.0,10.0,96,0.04,,,0.21,WUHU216DAVISVP2,2013-11-11 16:47:00,
2013-11-11 11:52:00,35.2,33.9,30.00,ENE,78,3.0,12.0,95,0.05,,,0.22,WUHU216DAVISVP2,2013-11-11 16:52:00,
2013-11-11 11:57:00,35.3,34.3,30.00,East,91,11.0,12.0,96,0.04,,,0.22,WUHU216DAVISVP2,2013-11-11 16:57:00,
2013-11-11 12:02:00,35.2,33.9,30.00,ESE,110,6.0,11.0,95,0.03,,,0.22,WUHU216DAVISVP2,2013-11-11 17:02:00,
2013-11-11 12:07:00,35.2,33.9,30.00,SE,127,1.0,11.0,95,0.03,,,0.22,WUHU216DAVISVP2,2013-11-11 17:07:00,
2013-11-11 12:12:00,35.2,33.9,30.00,ESE,113,5.0,12.0,95,0.03,,,0.22,WUHU216DAVISVP2,2013-11-11 17:12:00,
2013-11-11 12:17:00,35.1,33.8,30.00,East,100,3.0,12.0,95,0.03,,,0.23,WUHU216DAVISVP2,2013-11-11 17:17:00,
2013-11-11 12:22:00,35.0,33.7,30.00,SE,139,6.0,12.0,95,0.03,,,0.23,WUHU216DAVISVP2,2013-11-11 17:22:00,
2013-11-11 12:27:00,34.8,33.5,30.00,SE,145,4.0,12.0,95,0.04,,,0.24,WUHU216DAVISVP2,2013-11-11 17:27:00,
2013-11-11 12:32:00,34.7,33.4,30.00,SE,127,11.0,13.0,95,0.03,,,0.24,WUHU216DAVISVP2,2013-11-11 17:32:00,
2013-11-11 12:37:00,34.6,33.3,30.01,SSW,193,6.0,13.0,95,0.03,,,0.24,WUHU216DAVISVP2,2013-11-11 17:37:00,
2013-11-11 12:42:00,34.0,32.4,30.01,SSE,148,15.0,21.0,94,0.04,,,0.25,WUHU216DAVISVP2,2013-11-11 17:42:00,
2013-11-11 12:47:00,33.5,32.2,30.01,SSE,153,8.0,21.0,95,0.04,,,0.25,WUHU216DAVISVP2,2013-11-11 17:47:00,
2013-11-11 12:52:00,33.2,31.9,30.01,SE,146,16.0,21.0,95,0.03,,,0.25,WUHU216DAVISVP2,2013-11-11 17:52:00,
2013-11-11 12:57:00,32.9,31.6,30.02,SSE,153,6.0,21.0,95,0.03,,,0.25,WUHU216DAVISVP2,2013-11-11 17:57:00,
2013-11-11 13:03:00,32.4,30.8,30.02,SSE,148,11.0,16.0,94,0.03,,,0.25,WUHU216DAVISVP2,2013-11-11 18:03:00,
2013-11-11 13:08:00,32.1,30.8,30.02,SSE,155,5.0,16.0,95,0.03,,,0.25,WUHU216DAVISVP2,2013-11-11 18:08:00,
2013-11-11 13:13:00,31.9,30.6,30.02,SSE,160,5.0,16.0,95,0.03,,,0.25,WUHU216DAVISVP2,2013-11-11 18:13:00,
2013-11-11 13:18:00,31.7,30.4,30.02,South,176,7.0,16.0,95,0.02,,,0.25,WUHU216DAVISVP2,2013-11-11 18:18:00,
2013-11-11 13:23:00,31.4,30.1,30.03,SSE,158,9.0,16.0,95,0.02,,,0.25,WUHU216DAVISVP2,2013-11-11 18:23:00,
2013-11-11 13:28:00,31.2,29.9,30.03,South,173,13.0,17.0,95,0.01,,,0.25,WUHU216DAVISVP2,2013-11-11 18:28:00,
2013-11-11 13:33:00,30.9,29.6,30.03,South,181,6.0,17.0,95,0.01,,,0.25,WUHU216DAVISVP2,2013-11-11 18:33:00,
2013-11-11 13:38:00,30.7,29.4,30.03,SSE,159,9.0,17.0,95,0.01,,,0.25,WUHU216DAVISVP2,2013-11-11 18:38:00,
2013-11-11 13:43:00,30.5,29.2,30.03,SSW,196,9.0,17.0,95,0.00,,,0.25,WUHU216DAVISVP2,2013-11-11 18:43:00,
2013-11-11 13:48:00,30.5,29.2,30.03,South,177,7.0,17.0,95,0.00,,,0.25,WUHU216DAVISVP2,2013-11-11 18:48:00,
2013-11-11 13:53:00,30.4,29.1,30.04,WSW,256,5.0,17.0,95,0.00,,,0.25,WUHU216DAVISVP2,2013-11-11 18:53:00,
2013-11-11 13:58:00,30.5,29.2,30.04,South,176,8.0,17.0,95,0.00,,,0.25,WUHU216DAVISVP2,2013-11-11 18:58:00,
2013-11-11 14:03:00,30.5,29.2,30.04,SSE,152,9.0,15.0,95,0.00,,,0.25,WUHU216DAVISVP2,2013-11-11 19:03:00,
2013-11-11 14:08:00,30.5,29.2,30.04,South,172,4.0,15.0,95,0.00,,,0.25,WUHU216DAVISVP2,2013-11-11 19:08:00,
2013-11-11 14:13:00,30.5,28.9,30.04,South,171,7.0,15.0,94,0.00,,,0.25,WUHU216DAVISVP2,2013-11-11 19:13:00,
2013-11-11 14:18:00,30.5,28.9,30.04,South,173,11.0,15.0,94,0.00,,,0.25,WUHU216DAVISVP2,2013-11-11 19:18:00,
2013-11-11 14:23:00,30.6,29.0,30.04,SSE,160,2.0,14.0,94,0.00,,,0.25,WUHU216DAVISVP2,2013-11-11 19:23:00,
2013-11-11 14:28:00,30.6,29.1,30.05,South,186,5.0,14.0,94,0.00,,,0.25,WUHU216DAVISVP2,2013-11-11 19:28:00,
2013-11-11 14:33:00,30.5,28.9,30.05,SSE,152,4.0,11.0,94,0.00,,,0.25,WUHU216DAVISVP2,2013-11-11 19:33:00,
2013-11-11 14:38:00,30.3,28.7,30.05,SSW,195,8.0,13.0,94,0.00,,,0.25,WUHU216DAVISVP2,2013-11-11 19:38:00,
2013-11-11 14:43:00,30.0,28.4,30.06,SSE,166,5.0,13.0,94,0.00,,,0.25,WUHU216DAVISVP2,2013-11-11 19:43:00,
2013-11-11 14:48:00,29.9,28.6,30.06,SSE,150,7.0,13.0,95,0.00,,,0.25,WUHU216DAVISVP2,2013-11-11 19:48:00,
2013-11-11 14:53:00,29.8,28.5,30.06,South,181,13.0,14.0,95,0.00,,,0.25,WUHU216DAVISVP2,2013-11-11 19:53:00,
2013-11-11 14:58:00,29.3,27.7,30.07,SSE,150,9.0,18.0,94,0.00,,,0.25,WUHU216DAVISVP2,2013-11-11 19:58:00,
2013-11-11 15:03:00,28.8,26.7,30.07,SE,145,8.0,19.0,92,0.00,,,0.25,WUHU216DAVISVP2,2013-11-11 20:03:00,
2013-11-11 15:08:00,28.7,26.4,30.08,SSE,159,5.0,19.0,91,0.00,,,0.25,WUHU216DAVISVP2,2013-11-11 20:08:00,
2013-11-11 15:13:00,28.7,26.4,30.08,SSE,148,13.0,19.0,91,0.00,,,0.25,WUHU216DAVISVP2,2013-11-11 20:13:00,
2013-11-11 15:18:00,28.5,25.9,30.09,South,171,9.0,19.0,90,0.00,,,0.25,WUHU216DAVISVP2,2013-11-11 20:18:00,
2013-11-11 15:23:00,28.5,25.9,30.09,South,184,8.0,15.0,90,0.00,,,0.25,WUHU216DAVISVP2,2013-11-11 20:23:00,
2013-11-11 15:28:00,28.4,25.5,30.10,SSE,158,7.0,15.0,89,0.00,,,0.25,WUHU216DAVISVP2,2013-11-11 20:28:00,
2013-11-11 15:33:00,28.6,26.0,30.10,SSE,159,4.0,15.0,90,0.00,,,0.25,WUHU216DAVISVP2,2013-11-11 20:33:00,
2013-11-11 15:38:00,28.5,25.4,30.11,SSE,156,16.0,16.0,88,0.00,,,0.25,WUHU216DAVISVP2,2013-11-11 20:38:00,
2013-11-11 15:43:00,28.5,24.5,30.11,ESE,115,5.0,17.0,85,0.00,,,0.25,WUHU216DAVISVP2,2013-11-11 20:43:00,
2013-11-11 15:48:00,28.4,24.2,30.11,South,174,7.0,17.0,84,0.00,,,0.25,WUHU216DAVISVP2,2013-11-11 20:48:00,
2013-11-11 15:53:00,28.4,23.9,30.11,SW,225,10.0,17.0,83,0.00,,,0.25,WUHU216DAVISVP2,2013-11-11 20:53:00,
2013-11-11 15:58:00,28.3,23.5,30.11,SE,145,7.0,16.0,82,0.00,,,0.25,WUHU216DAVISVP2,2013-11-11 20:58:00,
2013-11-11 16:03:00,28.3,23.5,30.12,SSE,162,5.0,16.0,82,0.00,,,0.25,WUHU216DAVISVP2,2013-11-11 21:03:00,
2013-11-11 16:08:00,28.3,23.5,30.11,South,169,5.0,15.0,82,0.00,,,0.25,WUHU216DAVISVP2,2013-11-11 21:08:00,
2013-11-11 16:13:00,28.3,23.5,30.11,SE,145,6.0,15.0,82,0.00,,,0.25,WUHU216DAVISVP2,2013-11-11 21:13:00,
2013-11-11 16:18:00,28.3,23.5,30.12,SSE,156,3.0,15.0,82,0.00,,,0.25,WUHU216DAVISVP2,2013-11-11 21:18:00,
2013-11-11 16:23:00,28.3,23.8,30.12,South,169,6.0,15.0,83,0.00,,,0.25,WUHU216DAVISVP2,2013-11-11 21:23:00,
2013-11-11 16:28:00,28.2,23.4,30.12,South,169,3.0,11.0,82,0.00,,,0.25,WUHU216DAVISVP2,2013-11-11 21:28:00,
2013-11-11 16:33:00,28.2,23.7,30.12,SW,232,5.0,11.0,83,0.00,,,0.25,WUHU216DAVISVP2,2013-11-11 21:33:00,
2013-11-11 16:38:00,28.1,23.3,30.13,SSE,162,2.0,11.0,82,0.00,,,0.25,WUHU216DAVISVP2,2013-11-11 21:38:00,
2013-11-11 16:43:00,28.1,23.0,30.13,SSE,151,4.0,11.0,81,0.00,,,0.25,WUHU216DAVISVP2,2013-11-11 21:43:00,
2013-11-11 16:48:00,28.0,23.2,30.13,SSE,158,4.0,11.0,82,0.00,,,0.25,WUHU216DAVISVP2,2013-11-11 21:48:00,
2013-11-11 16:53:00,28.0,23.2,30.13,SE,144,3.0,9.0,82,0.00,,,0.25,WUHU216DAVISVP2,2013-11-11 21:53:00,
2013-11-11 16:58:00,28.0,23.5,30.14,SSW,203,3.0,8.0,83,0.00,,,0.25,WUHU216DAVISVP2,2013-11-11 21:58:00,
2013-11-11 17:03:00,27.9,23.4,30.14,SSE,156,2.0,7.0,83,0.00,,,0.25,WUHU216DAVISVP2,2013-11-11 22:03:00,
2013-11-11 17:08:00,27.9,23.4,30.14,SE,146,3.0,7.0,83,0.00,,,0.25,WUHU216DAVISVP2,2013-11-11 22:08:00,
2013-11-11 17:13:00,27.8,23.6,30.14,SE,129,1.0,6.0,84,0.00,,,0.25,WUHU216DAVISVP2,2013-11-11 22:13:00,
2013-11-11 17:18:00,27.8,23.3,30.15,SSE,156,6.0,9.0,83,0.00,,,0.25,WUHU216DAVISVP2,2013-11-11 22:18:00,
2013-11-11 17:23:00,27.8,23.3,30.15,SSE,152,3.0,9.0,83,0.00,,,0.25,WUHU216DAVISVP2,2013-11-11 22:23:00,
2013-11-11 17:28:00,27.8,23.3,30.16,East,91,4.0,9.0,83,0.00,,,0.25,WUHU216DAVISVP2,2013-11-11 22:28:00,
2013-11-11 17:33:00,27.7,23.2,30.16,SSE,165,4.0,9.0,83,0.00,,,0.25,WUHU216DAVISVP2,2013-11-11 22:33:00,
2013-11-11 17:38:00,27.7,22.9,30.16,SE,138,4.0,13.0,82,0.00,,,0.25,WUHU216DAVISVP2,2013-11-11 22:38:00,
2013-11-11 17:43:00,27.8,22.7,30.17,SE,141,4.0,13.0,81,0.00,,,0.25,WUHU216DAVISVP2,2013-11-11 22:43:00,
2013-11-11 17:48:00,27.7,22.9,30.17,SE,138,9.0,13.0,82,0.00,,,0.25,WUHU216DAVISVP2,2013-11-11 22:48:00,
2013-11-11 17:53:00,27.7,22.6,30.17,SE,132,9.0,13.0,81,0.00,,,0.25,WUHU216DAVISVP2,2013-11-11 22:53:00,
2013-11-11 17:58:00,27.7,22.0,30.17,SSE,154,6.0,16.0,79,0.00,,,0.25,WUHU216DAVISVP2,2013-11-11 22:58:00,
2013-11-11 18:03:00,27.7,22.0,30.18,WSW,242,8.0,16.0,79,0.00,,,0.25,WUHU216DAVISVP2,2013-11-11 23:03:00,
2013-11-11 18:08:00,27.7,21.5,30.18,SSW,207,8.0,16.0,77,0.00,,,0.25,WUHU216DAVISVP2,2013-11-11 23:08:00,
2013-11-11 18:13:00,27.6,21.7,30.18,South,190,5.0,16.0,78,0.00,,,0.25,WUHU216DAVISVP2,2013-11-11 23:13:00,
2013-11-11 18:18:00,27.6,21.7,30.19,SE,137,7.0,12.0,78,0.00,,,0.25,WUHU216DAVISVP2,2013-11-11 23:18:00,
2013-11-11 18:23:00,27.5,21.0,30.19,SE,138,6.0,13.0,76,0.00,,,0.25,WUHU216DAVISVP2,2013-11-11 23:23:00,
2013-11-11 18:28:00,27.5,20.6,30.19,SSW,207,5.0,14.0,75,0.00,,,0.25,WUHU216DAVISVP2,2013-11-11 23:28:00,
2013-11-11 18:33:00,27.4,20.8,30.19,SW,222,1.0,15.0,76,0.00,,,0.25,WUHU216DAVISVP2,2013-11-11 23:33:00,
2013-11-11 18:38:00,27.3,20.5,30.20,SSE,158,5.0,15.0,75,0.00,,,0.25,WUHU216DAVISVP2,2013-11-11 23:38:00,
2013-11-11 18:43:00,27.3,20.8,30.20,SSE,156,5.0,15.0,76,0.00,,,0.25,WUHU216DAVISVP2,2013-11-11 23:43:00,
2013-11-11 18:48:00,27.2,20.7,30.20,SSW,200,2.0,15.0,76,0.00,,,0.25,WUHU216DAVISVP2,2013-11-11 23:48:00,
2013-11-11 18:53:00,27.1,20.9,30.21,SE,131,4.0,13.0,77,0.00,,,0.25,WUHU216DAVISVP2,2013-11-11 23:53:00,
2013-11-11 18:58:00,27.0,20.8,30.21,SW,232,3.0,11.0,77,0.00,,,0.25,WUHU216DAVISVP2,2013-11-11 23:58:00,
2013-11-11 19:03:00,26.9,21.0,30.21,SW,216,2.0,7.0,78,0.00,,,0.25,WUHU216DAVISVP2,2013-11-12 00:03:00,
2013-11-11 19:08:00,26.9,20.7,30.21,SE,127,6.0,10.0,77,0.00,,,0.25,WUHU216DAVISVP2,2013-11-12 00:08:00,
2013-11-11 19:13:00,26.9,20.7,30.21,SSE,148,6.0,10.0,77,0.00,,,0.25,WUHU216DAVISVP2,2013-11-12 00:13:00,
2013-11-11 19:18:00,26.9,20.7,30.22,SE,127,3.0,10.0,77,0.00,,,0.25,WUHU216DAVISVP2,2013-11-12 00:18:00,
2013-11-11 19:23:00,26.8,20.6,30.22,SE,134,3.0,9.0,77,0.00,,,0.25,WUHU216DAVISVP2,2013-11-12 00:23:00,
2013-11-11 19:28:00,26.7,20.5,30.22,SSE,150,3.0,8.0,77,0.00,,,0.25,WUHU216DAVISVP2,2013-11-12 00:28:00,
2013-11-11 19:33:00,26.7,20.8,30.23,SSW,203,4.0,8.0,78,0.00,,,0.25,WUHU216DAVISVP2,2013-11-12 00:33:00,
2013-11-11 19:38:00,26.7,20.5,30.22,SSE,158,3.0,8.0,77,0.00,,,0.25,WUHU216DAVISVP2,2013-11-12 00:38:00,
2013-11-11 19:43:00,26.6,20.1,30.22,SSE,156,4.0,9.0,76,0.00,,,0.25,WUHU216DAVISVP2,2013-11-12 00:43:00,
2013-11-11 19:48:00,26.6,20.1,30.22,ESE,120,1.0,9.0,76,0.00,,,0.25,WUHU216DAVISVP2,2013-11-12 00:48:00,
2013-11-11 19:53:00,26.5,20.0,30.22,SSE,158,5.0,9.0,76,0.00,,,0.25,WUHU216DAVISVP2,2013-11-12 00:53:00,
2013-11-11 19:58:00,26.4,19.9,30.23,SSE,159,2.0,9.0,76,0.00,,,0.25,WUHU216DAVISVP2,2013-11-12 00:58:00,
2013-11-11 20:03:00,26.4,19.6,30.23,SSE,159,4.0,12.0,75,0.00,,,0.25,WUHU216DAVISVP2,2013-11-12 01:03:00,
2013-11-11 20:08:00,26.3,19.5,30.23,SSW,194,2.0,12.0,75,0.00,,,0.25,WUHU216DAVISVP2,2013-11-12 01:08:00,
2013-11-11 20:13:00,26.2,19.7,30.24,SSE,153,5.0,12.0,76,0.00,,,0.25,WUHU216DAVISVP2,2013-11-12 01:13:00,
2013-11-11 20:18:00,26.1,19.6,30.24,SSE,148,3.0,12.0,76,0.00,,,0.25,WUHU216DAVISVP2,2013-11-12 01:18:00,
2013-11-11 20:23:00,26.1,19.6,30.24,SE,127,5.0,8.0,76,0.00,,,0.25,WUHU216DAVISVP2,2013-11-12 01:23:00,
2013-11-11 20:28:00,26.0,19.5,30.24,SSE,154,3.0,7.0,76,0.00,,,0.25,WUHU216DAVISVP2,2013-11-12 01:28:00,
2013-11-11 20:33:00,25.8,19.6,30.24,SE,138,2.0,7.0,77,0.00,,,0.25,WUHU216DAVISVP2,2013-11-12 01:33:00,
2013-11-11 20:38:00,25.7,19.5,30.24,ESE,112,2.0,7.0,77,0.00,,,0.25,WUHU216DAVISVP2,2013-11-12 01:38:00,
2013-11-11 20:43:00,25.5,19.6,30.25,SSE,148,3.0,7.0,78,0.00,,,0.25,WUHU216DAVISVP2,2013-11-12 01:43:00,
2013-11-11 20:48:00,25.4,19.5,30.25,ESE,115,3.0,5.0,78,0.00,,,0.25,WUHU216DAVISVP2,2013-11-12 01:48:00,
2013-11-11 20:53:00,25.3,19.7,30.24,SE,131,2.0,5.0,79,0.00,,,0.25,WUHU216DAVISVP2,2013-11-12 01:53:00,
2013-11-11 20:58:00,25.2,19.6,30.25,SE,144,3.0,7.0,79,0.00,,,0.25,WUHU216DAVISVP2,2013-11-12 01:58:00,
2013-11-11 21:03:00,25.3,19.7,30.25,ESE,120,4.0,7.0,79,0.00,,,0.25,WUHU216DAVISVP2,2013-11-12 02:03:00,
2013-11-11 21:08:00,25.2,19.6,30.25,ESE,117,3.0,7.0,79,0.00,,,0.25,WUHU216DAVISVP2,2013-11-12 02:08:00,
2013-11-11 21:13:00,25.1,19.5,30.26,SE,137,2.0,7.0,79,0.00,,,0.25,WUHU216DAVISVP2,2013-11-12 02:13:00,
2013-11-11 21:18:00,25.1,19.8,30.26,SE,128,2.0,6.0,80,0.00,,,0.25,WUHU216DAVISVP2,2013-11-12 02:18:00,
2013-11-11 21:23:00,25.0,19.7,30.26,SE,145,4.0,6.0,80,0.00,,,0.25,WUHU216DAVISVP2,2013-11-12 02:23:00,
2013-11-11 21:28:00,24.9,19.9,30.26,SE,145,5.0,6.0,81,0.00,,,0.25,WUHU216DAVISVP2,2013-11-12 02:28:00,
2013-11-11 21:33:00,25.0,20.0,30.26,SE,133,1.0,6.0,81,0.00,,,0.25,WUHU216DAVISVP2,2013-11-12 02:33:00,
2013-11-11 21:38:00,25.1,20.4,30.27,SE,128,2.0,6.0,82,0.00,,,0.25,WUHU216DAVISVP2,2013-11-12 02:38:00,
2013-11-11 21:43:00,25.2,20.5,30.27,SSE,152,3.0,6.0,82,0.00,,,0.25,WUHU216DAVISVP2,2013-11-12 02:43:00,
2013-11-11 21:48:00,25.3,20.6,30.27,SE,124,2.0,6.0,82,0.00,,,0.25,WUHU216DAVISVP2,2013-11-12 02:48:00,
2013-11-11 21:53:00,25.5,20.8,30.27,ESE,113,4.0,8.0,82,0.00,,,0.25,WUHU216DAVISVP2,2013-11-12 02:53:00,
2013-11-11 21:58:00,25.7,20.7,30.27,SSE,159,6.0,8.0,81,0.00,,,0.25,WUHU216DAVISVP2,2013-11-12 02:58:00,
2013-11-11 22:03:00,25.8,20.8,30.28,SE,129,8.0,9.0,81,0.00,,,0.25,WUHU216DAVISVP2,2013-11-12 03:03:00,
2013-11-11 22:08:00,25.9,20.6,30.28,ESE,115,1.0,10.0,80,0.00,,,0.25,WUHU216DAVISVP2,2013-11-12 03:08:00,
2013-11-11 22:13:00,26.0,20.7,30.28,ESE,110,3.0,11.0,80,0.00,,,0.25,WUHU216DAVISVP2,2013-11-12 03:13:00,
2013-11-11 22:18:00,26.0,20.7,30.28,ESE,117,3.0,11.0,80,0.00,,,0.25,WUHU216DAVISVP2,2013-11-12 03:18:00,
2013-11-11 22:23:00,25.9,20.6,30.28,SE,131,2.0,11.0,80,0.00,,,0.25,WUHU216DAVISVP2,2013-11-12 03:23:00,
2013-11-11 22:28:00,25.7,20.4,30.28,SE,139,5.0,11.0,80,0.00,,,0.25,WUHU216DAVISVP2,2013-11-12 03:28:00,
2013-11-11 22:33:00,25.7,20.4,30.28,SSE,153,5.0,9.0,80,0.00,,,0.25,WUHU216DAVISVP2,2013-11-12 03:33:00,
2013-11-11 22:38:00,25.6,20.6,30.28,ESE,121,4.0,9.0,81,0.00,,,0.25,WUHU216DAVISVP2,2013-11-12 03:38:00,
2013-11-11 22:43:00,25.5,20.5,30.29,SE,142,9.0,10.0,81,0.00,,,0.25,WUHU216DAVISVP2,2013-11-12 03:43:00,
2013-11-11 22:48:00,25.4,20.4,30.29,SSE,167,3.0,11.0,81,0.00,,,0.25,WUHU216DAVISVP2,2013-11-12 03:48:00,
2013-11-11 22:53:00,25.3,20.6,30.30,South,170,5.0,11.0,82,0.00,,,0.25,WUHU216DAVISVP2,2013-11-12 03:53:00,
2013-11-11 22:58:00,25.3,20.6,30.30,SSE,153,3.0,11.0,82,0.00,,,0.25,WUHU216DAVISVP2,2013-11-12 03:58:00,
2013-11-11 23:03:00,25.3,20.6,30.30,East,100,6.0,9.0,82,0.00,,,0.25,WUHU216DAVISVP2,2013-11-12 04:03:00,
2013-11-11 23:08:00,25.2,20.5,30.30,SW,214,8.0,9.0,82,0.00,,,0.25,WUHU216DAVISVP2,2013-11-12 04:08:00,
2013-11-11 23:13:00,25.1,20.6,30.31,SE,132,3.0,11.0,83,0.00,,,0.25,WUHU216DAVISVP2,2013-11-12 04:13:00,
2013-11-11 23:18:00,25.0,20.5,30.31,SW,223,10.0,11.0,83,0.00,,,0.25,WUHU216DAVISVP2,2013-11-12 04:18:00,
2013-11-11 23:23:00,25.1,20.7,30.31,SSE,155,6.0,12.0,83,0.00,,,0.25,WUHU216DAVISVP2,2013-11-12 04:23:00,
2013-11-11 23:28:00,25.1,20.6,30.31,SE,128,4.0,12.0,83,0.00,,,0.25,WUHU216DAVISVP2,2013-11-12 04:28:00,
2013-11-11 23:33:00,25.0,20.5,30.31,South,181,4.0,12.0,83,0.00,,,0.25,WUHU216DAVISVP2,2013-11-12 04:33:00,
2013-11-11 23:38:00,25.0,20.5,30.31,South,172,8.0,12.0,83,0.00,,,0.25,WUHU216DAVISVP2,2013-11-12 04:38:00,
2013-11-11 23:43:00,24.9,20.5,30.32,SE,146,3.0,10.0,83,0.00,,,0.25,WUHU216DAVISVP2,2013-11-12 04:43:00,
2013-11-11 23:48:00,24.8,20.4,30.32,SE,127,6.0,10.0,83,0.00,,,0.25,WUHU216DAVISVP2,2013-11-12 04:48:00,
2013-11-11 23:53:00,24.7,20.3,30.32,SSE,149,5.0,10.0,83,0.00,,,0.25,WUHU216DAVISVP2,2013-11-12 04:53:00,
2013-11-11 23:58:00,24.6,20.2,30.32,SSE,157,5.0,10.0,83,0.00,,,0.25,WUHU216DAVISVP2,2013-11-12 04:58:00,